Regional Weather Roundup
Issued by NWS Grand Forks, ND

Home | Current Version | Previous Version | Graphics & Text | Print | Product List | Glossary On
Versions: 1 2 3 4 5 6 7 8 9 10 11 12 13 14 15 16 17 18 19 20 21 22 23 24 25 26 27 28 29 30 31 32 33 34 35 36 37 38 39 40 41 42 43 44 45 46 47 48 49 50
000
ASUS43 KFGF 210310
RWRFGF
PRAIRIE TO PINES  WEATHER ROUNDUP
NATIONAL WEATHER SERVICE EASTERN NORTH DAKOTA/GRAND FORKS ND
1000 PM CDT SAT SEP 20 2014

 **SATELLITE DATA USED TO AUGMENT SKY COVER AT AUTOMATED STATIONS**
 *****  WEATHER ACROSS EASTERN NORTH DAKOTA  *****

CITY           SKY/WX    TMP DP  RH WIND       PRES   REMARKS
GRAND FORKS    CLOUDY    54  51  90 W6        29.92R
GRAND FRKS AFB MOCLDY    53  53  99 NW7       29.94R
GRAND FRKS NWS   N/A     54 N/A N/A NW3         N/A
DEVILS LAKE    MOCLDY    61  45  55 NW13      29.97R
FARGO          MOCLDY    56  50  80 N5        29.92R
WAHPETON ARPT  MOCLDY    55  46  71 N12       29.92R
$$

 ***** WEATHER ACROSS CENTRAL AND WESTERN NORTH DAKOTA  *****

CITY           SKY/WX    TMP DP  RH WIND       PRES   REMARKS
BISMARCK       CLEAR     61  40  45 NW9       30.09R
MINOT          CLEAR     58  41  53 W12       30.07R
JAMESTOWN      MOCLDY    58  44  60 NW10      29.98R
MINOT AFB      CLEAR     54  44  69 NW10      30.06R
GARRISON         N/A     56  40  55 W10       30.09R
WILLISTON      CLEAR     52  36  54 W7        30.16R
DICKINSON      CLEAR     48  36  63 W8        30.16R
HETTINGER      CLEAR     47  36  65 W7        30.18R
$$

 *****  OTHER AIRPORT OBSERVATIONS IN OUR AREA  *****

CITY           SKY/WX    TMP DP  RH WIND       PRES   REMARKS
WALHALLA       FAIR      54  54 100 NW8       29.95R
GRAFTON AIRPOR MOCLDY    54  54 100 NW10      29.93R
VALLEY CITY AR MOCLDY    59  45  58 NW13      29.96R
CANDO          MOCLDY    57  46  67 N13       30.00R
CAVALIER APRT  MOCLDY    54  52  94 NW8       29.93S
GWINNER        CLEAR     57  43  58 CALM      29.97R
SHEYENNE NWR     N/A     59  45  60 W8        29.95
ROLLA          MOCLDY    55  45  67 NW14G20   30.01R
 ***** THE ABOVE OBSERVATIONS ARE NON NWS ARE NOT QUALITY
       CONTROLLED AND MAY MIS-REPORT RAIN FOR SNOW...
$$

  *****  WEATHER ACROSS NORTHERN MINNESOTA  *****

CITY           SKY/WX    TMP DP  RH WIND       PRES   REMARKS
FLAG ISLAND    LGT RAIN  52  48  87 N12       29.86R
WARROAD        CLOUDY    50  46  87 NW3       29.89R
ROSEAU         MOCLDY    48  45  87 N3        29.89R
HALLOCK        PTCLDY    52  52 100 NW5       29.91R
THF RVR FALLS  PTCLDY    52  48  87 NW9       29.90R
BAUDETTE       LGT RAIN  51  48  89 NW13      29.85R
WASKISH        DRIZZLE   50  48  93 NW7       29.85R
CROOKSTON      DRIZZLE   54  52  94 NW9       29.92R
STEPHEN NDAWN    N/A     52  52 100 NW5         N/A
GREENBUSH NDAW   N/A     52  52 100 W6          N/A
$$
  *****  WEATHER ACROSS CENTRAL AND WEST MINNESOTA  *****

CITY           SKY/WX    TMP DP  RH WIND       PRES   REMARKS
FOSSTON        MOCLDY    50  48  93 CALM      29.90R
BEMIDJI        MOCLDY    49  48  95 W8        29.86R
PARK RAPIDS    CLOUDY    51  49  92 NW13      29.87R
ELBOW LAKE     FAIR      54  50  85 NW3       29.91R
WADENA         MOCLDY    54  48  82 W6        29.88R
DETROIT LAKES  PTCLDY    54  52  94 NW8       29.91R
MOORHEAD       PTCLDY    55  55 100 N7        29.92R
FERGUS FALLS   MOCLDY    55  48  76 NW10      29.90S
MORRIS MN      CLEAR     57  50  77 W13       29.90S
STAPLES        CLOUDY    55  48  76 NW13      29.86R
$$
  *****  WEATHER ELSEWHERE ACROSS MINNESOTA  *****

CITY           SKY/WX    TMP DP  RH WIND       PRES   REMARKS
DULUTH         LGT RAIN  54  51  90 NW6       29.71R
INTRNTL FALLS  LGT RAIN  51  49  92 NW14      29.81R
ELY            CLOUDY    50  48  93 CALM      29.73R
CLOQUET        LGT RAIN  54  52  94 W8        29.71S
WHEATON        CLEAR     57  46  67 W10G16    29.94R
BRAINERD       PTCLDY    55  46  71 NW12      29.83R
HIBBING        LGT RAIN  55  51  86 NW15      29.75R
ALEXANDRIA     PTCLDY    53  50  89 W9        29.90R
SAINT CLOUD    PTCLDY    59  50  72 W14       29.84S
MINNEAPOLIS    CLEAR     58  52  80 W8        29.85S
$$

  *****  WEATHER ACROSS SOUTH DAKOTA  *****

CITY           SKY/WX    TMP DP  RH WIND       PRES   REMARKS
SIOUX FALLS    PTCLDY    60  45  57 NW6       30.02R
BROOKINGS      NOT AVBL
WATERTOWN      CLEAR     59  45  59 W9        29.99R
HURON          CLEAR     53  41  63 NW8       30.04R
SISSETON         N/A     61  45  55 NW15      29.94R
ABERDEEN       CLEAR     61  43  51 NW13      30.03R
MITCHELL       CLEAR     58  44  60 NW8       30.05R
PIERRE         CLEAR     55  39  54 NW12      30.10R
MOBRIDGE       CLEAR     54  46  74 NW7       30.08R
RAPID CITY     CLEAR     54  40  59 N8        30.23R
$$

  *****  SOME WEATHER IN NEARBY STATES *****

CITY           SKY/WX    TMP DP  RH WIND       PRES   REMARKS
GLASGOW MT     CLEAR     55  36  48 NW7       30.20R
GREAT FALLS MT CLEAR     61  40  45 E12       30.24R
CHEYENNE WY    MOCLDY    63  43  48 NE10      30.36R
SCOTTSBLUFF NE CLEAR     63  41  44 NE9       30.26R
OMAHA NE       PTCLDY    73  54  51 NW14      29.99R
DES MOINES IA  PTCLDY    71  58  63 W9        29.88R
DAVENPORT IA   CLEAR     70  65  84 SW12      29.79F
CHICAGO IL     PTCLDY    69  63  81 SW3       29.77F
EAU CLAIRE WI  CLOUDY    58  54  86 W13       29.78R
LA CROSSE WI   CLOUDY    62  59  90 W9        29.79R
$$

  *****  SOME NATIONAL WEATHER *****

CITY           SKY/WX    TMP DP  RH WIND       PRES   REMARKS
LA GUARDIA NY  MOCLDY    70  64  81 S7        30.07F
RALEIGH NC     CLOUDY    68  61  78 NE5       30.01F
ATLANTA GA     CLEAR     71  61  70 SE3       30.05S
NEW ORLEANS LA PTCLDY    80  71  74 SE7       29.99R
OKLAHOMA CITY  CLEAR     74  67  78 S3        30.03R
ALBUQUERQUE NM PTCLDY    77  51  40 E15       30.16R
SALT LAKE CITY MOCLDY    74  53  48 CALM      30.06S
LOS ANGELES CA PTCLDY    69  62  78 W10       29.91R
BOISE ID       CLEAR     74  48  39 CALM      30.01R
SEATTLE WA     PTCLDY    68  56  65 N7        29.92S
$$

*** WEATHER ACROSS MANITOBA...SASKATCHEWAN AND ONTARIO ***
                ***ONTARIO***

CITY           SKY/WX    TMP DP  RH WIND       PRES   REMARKS
GERALDTON      CLOUDY    43  43 100 N5        29.79R FOG
THUNDER BAY    CLOUDY    52  50  93 NE5       29.74S
SIOUX LOOKOUT  MOCLDY    46  45  93 VRB2      29.82R
TORONTO        MOCLDY    72  63  73 SW15G21   29.77F
BIG TROUT LK   CLOUDY    41  34  75 NW6       29.87R
PICKLE LAKE    NOT AVBL
DRYDEN         CLOUDY    52  46  82 N6        29.82R
KENORA         LGT RAIN  48  48 100 NW7       29.86R
$$
                *** MANITOBA***

CITY           SKY/WX    TMP DP  RH WIND       PRES   REMARKS
BRANDON        MOCLDY    55  48  76 NW10      30.01R
DAUPHIN        CLOUDY    54  50  87 W6        29.99R
ISLAND LAKE    CLOUDY    50  43  76 CALM      29.90R
PILOT MOUND    NOT AVBL
THE PAS        CLOUDY    55  52  88 NW9       29.95R
THOMPSON       MOCLDY    43  41  93 N5        29.95R
WINNIPEG       PTCLDY    50  48  93 W8        29.92R
LYNN LAKE      CLOUDY    43  41  93 SW5       29.95R
CHURCHILL      MOCLDY    37  34  87 NW5       29.96S
GILLAM         CLEAR     36  34  93 E3        29.94R
$$
                ***SASKATCHEWAN***

CITY           SKY/WX    TMP DP  RH WIND       PRES   REMARKS
ESTEVAN        NOT AVBL
KINDERSLEY     PTCLDY    52  41  66 W7        30.17R
LLOYDMINSTER   CLEAR     46  34  61 W8        30.11R
PRINCE ALBERT  CLEAR     46  43  87 CALM      30.06R
REGINA         CLEAR     52  41  66 W9        30.12R
YORKTON        PTCLDY    54  45  71 W7        30.04R
N. BATTLEFORD  CLEAR     45  36  70 W2        30.12R
LA RONGE       PTCLDY    45  45 100 W2        30.04R
SASKATOON      CLEAR     50  37  62 W8        30.11R
SWIFT CURRENT  CLEAR     52  34  50 W9        30.18R
$$
NOTE: THESE ARE AUTOMATED STATIONS WITH LIMITED QUALITY CONTROL
      "FAIR" INDICATES FEW OR NO CLOUDS BELOW 12,000 FEET WITH NO
      SIGNIFICANT WEATHER AND/OR OBSTRUCTIONS TO VISIBILITY.
      SKY/WX - SKY CONDITION AND SIGNIFICANT WEATHER.
      TMP - AIR TEMPERATURE.    DP   - DEWPOINT TEMPERATURE.
      RH  - RELATIVE HUMIDITY.  PRES - PRESSURE.
      HX  - HEAT INDEX.         WCI  - WIND CHILL INDEX.
$


USA.gov is the U.S. government's official web portal to all federal, state and local government web resources and services.